Погода в Студеных Выселках

Россия / Липецкая область     52°42′53″N   39°30′57″E
темп.,
°C
ветер,
м/с
пор.,
м/с
влажн.,
%
обл.,
%
осадки,
мм/ч
давл.,
гПа
погр.,
м
11 мая, вт
вт1100:00+8св9199064 0.0 1020572
03:00+8ссв91992100 0.0 1019445
06:00+9ссв8189285 0.0 1019525
09:00+13св81481100 0.0 1019735
12:00+11вюв51390100 0.4 1022827
15:00+13в696987 1.1 10231336
18:00+14вюв596311 0.0 1023992
21:00+8вюв35801 0.0 102697
12 мая, ср
ср1200:00+7в349113 0.0 102662
03:00+6св3593100 0.0 102683
06:00+7св398972 0.0 1026212
09:00+12всв6772100 0.0 1024911
12:00+11св4481100 0.6 1022644
15:00+12всв3372100 1.0 1021967
18:00+12в467732 0.1 1020592
21:00+9всв41091100 0.1 1020222
13 мая, чт
чт1300:00+9в5119199 0.0 1020287
03:00+8в4109361 0.0 1020220
06:00+9в3793100 0.0 1019179
09:00+14вюв3575100 0.0 1017405
12:00+18юв23585 0.0 10161173
15:00+20юв355139 0.0 10161914
18:00+19юв466418 0.1 1016218
21:00+15юв357812 0.2 101664
14 мая, пт
пт1400:00+14вюв3780100 0.0 1017130
03:00+14вюв3986100 0.0 1017187
06:00+14вюв3108890 0.0 1017292
09:00+19вюв6973100 0.2 1016551
12:00+24юв795950 0.0 10151417
15:00+25юв7105571 0.0 10141563
18:00+23юв51068100 0.0 1013502
21:00+19юв3686100 1.9 101397
15 мая, сб
сб1500:00+17ю31190100 0.1 1013223
03:00+16в4694100 0.1 101189
06:00+16ююв4991100 0.3 1011272
09:00+19ююв457876 1.5 1011449
12:00+22ю6970100 0.4 10111087
15:00+22ю71071100 2.8 10111229
18:00+19ююв610825 4.8 1011505
21:00+17ю51286100 6.8 1011304